Location: Newark
(44.6768°N, 22.5302°E)
Time: 02:16:57
(UTC+00:00)

Max Valier Satellite - Pass Details

Date: 10 July 2022
Orbit: 474 x 491 km, 97.2° (Epoch: 07 August)

Event Time Altitude Azimuth Distance (km) Brightness Sun altitude
Rises 18:50:02 0° 192° (SSW) 2,556 ? -5.7°
Reaches altitude 10° 18:52:18 10° 204° (SSW) 1,682 ? -6.0°
Maximum altitude 18:55:26 27° 264° (W) 966 ? -6.5°
Drops below altitude 10° 18:58:37 10° 325° (NW) 1,697 ? -6.9°
Sets 19:00:55 0° 337° (NNW) 2,585 ? -7.2°
